Location: LDNL
(36.4545°S, 141.6685°E)
Time: 11:22:51
(UTC+10:00)

Explorer 7 - Pass Details

Date: 20 August 2022
Orbit: 482 x 668 km, 50.3° (Epoch: 26 September)

Event Time Altitude Azimuth Distance (km) Brightness Sun altitude
Rises 17:58:31 0° 252° (WSW) 3,028 11.7 0.2°
Reaches altitude 10° 18:01:41 10° 231° (SW) 2,111 10.4 -0.4°
Maximum altitude 18:04:52 17° 190° (S) 1,682 9.3 -1.1°
Drops below altitude 10° 18:08:00 10° 150° (SSE) 2,079 9.4 -1.7°
Sets 18:11:05 0° 129° (SE) 2,962 10.0 -2.3°
Enters shadow 18:11:06 - 129° (SE) 2,966 10.0 -2.3°
